Overview Statistics Trail Chart Weather Telemetry Raw packets
 

This is the latest recevied weather packets stored in our database for station/object DOUGLAS. If no packets are shown the sender has not sent any weather packets the latest 10 day(s).

<< 40 41 42 43 44 45 46 >>
Time Temp. Humidity Pressure Rain* Wind** Luminosity Snow
1787975403 12.22° C - - - - - -
1787974803 12.22° C 98% 0 hPa - - - -
1787974203 12.78° C 97% 0 hPa - - - -
1787973603 12.78° C 96% 0 hPa - - - -
1787973003 12.78° C 95% 0 hPa - - - -
1787972403 12.78° C 94% 0 hPa - - - -
1787971804 13.33° C 92% 0 hPa - - - -
1787971203 13.33° C 91% 0 hPa - - - -
1787970604 13.33° C 90% 0 hPa - - - -
1787970003 13.33° C 88% 0 hPa - - - -
1787969403 13.89° C 86% 0 hPa - - - -
1787968803 13.89° C 85% 0 hPa - - - -
1787968203 14.44° C 85% 0 hPa - - - -
1787967604 14.44° C 85% 0 hPa - - - -
1787967003 15° C 81% 0 hPa - - - -
1787966403 15° C 80% 0 hPa - - - -
1787965803 15.56° C 76% 0 hPa - - - -
1787965204 16.11° C 75% 0 hPa - - - -
1787964602 15.56° C 75% 0 hPa - - - -
1787964003 15.56° C 75% 0 hPa - - - -
1787963403 16.67° C 70% 0 hPa - - - -
1787962803 17.22° C 71% 0 hPa - - - -
1787962203 17.22° C 69% 0 hPa - - - -
1787961604 17.22° C 71% 0 hPa - - - -
1787961003 17.78° C 67% 0 hPa - - - -

* Rain since midnight (hover to see other rain measurements)
** Current wind speed in m/s (hover to see current wind gust speed)